N22ZB KPSC-KTMK

Flight info

Callsign N22ZB
Flight time 1h 27m
Altitude 8000
Route PSC V520 LTJ V112 BTG FETUJ
Aircraft S22T/L-G/L

Departure

Time 2026-05-04 23:25
Airport Tri Cities Airport (KPSC)

Arrival

Time 2026-05-05 00:52
Airport Tillamook Airport (KTMK)
Time Latitude Longitude Altitude Speed Heading
2026-05-04 23:12 46.26434 -119.10619 406 ft 0 kts 70°
2026-05-04 23:20 46.26435 -119.10616 406 ft 2 kts 71°
2026-05-04 23:21 46.26401 -119.10605 406 ft 11 kts 210°
2026-05-04 23:21 46.26355 -119.10666 406 ft 8 kts 236°
2026-05-04 23:21 46.26285 -119.10666 406 ft 16 kts 159°
2026-05-04 23:21 46.26201 -119.10620 406 ft 13 kts 161°
2026-05-04 23:22 46.26101 -119.10572 406 ft 15 kts 160°
2026-05-04 23:22 46.25989 -119.10535 406 ft 19 kts 189°
2026-05-04 23:22 46.25913 -119.10597 406 ft 0 kts 220°
2026-05-04 23:23 46.25913 -119.10598 406 ft 0 kts 219°
2026-05-04 23:24 46.25909 -119.10602 406 ft 2 kts 220°
2026-05-04 23:24 46.25868 -119.10655 404 ft 9 kts 224°
2026-05-04 23:24 46.25864 -119.10718 404 ft 9 kts 315°
2026-05-04 23:24 46.26000 -119.10911 404 ft 59 kts 315°
2026-05-04 23:25 46.26392 -119.11445 588 ft 84 kts 314°
2026-05-04 23:25 46.26843 -119.12064 852 ft 92 kts 315°
2026-05-04 23:25 46.27063 -119.12898 1133 ft 98 kts 264°
2026-05-04 23:25 46.26817 -119.13834 1436 ft 104 kts 246°
2026-05-04 23:26 46.26501 -119.14788 1769 ft 107 kts 246°
2026-05-04 23:26 46.26118 -119.15727 2144 ft 109 kts 246°
2026-05-04 23:26 46.25795 -119.16730 2608 ft 111 kts 246°
2026-05-04 23:26 46.25454 -119.17736 3038 ft 112 kts 248°
2026-05-04 23:27 46.25133 -119.18768 3461 ft 114 kts 251°
2026-05-04 23:27 46.24843 -119.19832 3927 ft 114 kts 252°
2026-05-04 23:27 46.24527 -119.20963 4257 ft 131 kts 251°
2026-05-04 23:27 46.24196 -119.22196 4606 ft 134 kts 251°
2026-05-04 23:28 46.23859 -119.23447 4988 ft 134 kts 251°
2026-05-04 23:28 46.23517 -119.24704 5421 ft 135 kts 252°
2026-05-04 23:28 46.23176 -119.25967 5847 ft 136 kts 251°
2026-05-04 23:28 46.22832 -119.27237 6234 ft 136 kts 252°
2026-05-04 23:29 46.22484 -119.28510 6628 ft 136 kts 252°
2026-05-04 23:29 46.22135 -119.29784 7025 ft 137 kts 252°
2026-05-04 23:29 46.21788 -119.31066 7418 ft 137 kts 252°
2026-05-04 23:29 46.21441 -119.32353 7811 ft 138 kts 253°
2026-05-04 23:30 46.21084 -119.33672 8000 ft 153 kts 253°
2026-05-04 23:30 46.20684 -119.35164 8010 ft 165 kts 253°
2026-05-04 23:30 46.20257 -119.36734 8010 ft 171 kts 253°
2026-05-04 23:30 46.19819 -119.38342 8010 ft 174 kts 253°
2026-05-04 23:31 46.19372 -119.39981 8009 ft 176 kts 252°
2026-05-04 23:31 46.18921 -119.41631 8011 ft 177 kts 253°
2026-05-04 23:31 46.18471 -119.43286 8011 ft 178 kts 252°
2026-05-04 23:31 46.18018 -119.44944 8011 ft 178 kts 253°
2026-05-04 23:32 46.17571 -119.46579 8012 ft 177 kts 253°
2026-05-04 23:32 46.17120 -119.48227 8013 ft 177 kts 253°
2026-05-04 23:32 46.16669 -119.49877 8013 ft 177 kts 253°
2026-05-04 23:32 46.16217 -119.51527 8012 ft 177 kts 253°
2026-05-04 23:33 46.15765 -119.53174 8008 ft 177 kts 252°
2026-05-04 23:33 46.15313 -119.54826 8005 ft 177 kts 252°
2026-05-04 23:33 46.14860 -119.56477 8008 ft 177 kts 252°
2026-05-04 23:33 46.14406 -119.58134 8006 ft 178 kts 252°
2026-05-04 23:34 46.13950 -119.59792 8010 ft 178 kts 252°
2026-05-04 23:34 46.13497 -119.61442 8008 ft 177 kts 252°
2026-05-04 23:34 46.13050 -119.63065 8008 ft 177 kts 251°
2026-05-04 23:34 46.12594 -119.64717 8010 ft 178 kts 251°
2026-05-04 23:35 46.12138 -119.66376 8015 ft 178 kts 252°
2026-05-04 23:35 46.11688 -119.68016 8012 ft 174 kts 252°
2026-05-04 23:35 46.11239 -119.69635 8010 ft 175 kts 251°
2026-05-04 23:35 46.10786 -119.71275 8011 ft 176 kts 252°
2026-05-04 23:36 46.10332 -119.72919 8013 ft 177 kts 252°
2026-05-04 23:36 46.09879 -119.74566 8019 ft 177 kts 252°
2026-05-04 23:36 46.09429 -119.76187 8018 ft 177 kts 252°
2026-05-04 23:36 46.08974 -119.77833 8016 ft 177 kts 252°
2026-05-04 23:37 46.08520 -119.79475 8018 ft 176 kts 252°
2026-05-04 23:37 46.08065 -119.81117 8017 ft 177 kts 252°
2026-05-04 23:37 46.07609 -119.82759 8014 ft 177 kts 252°
2026-05-04 23:37 46.07151 -119.84405 8015 ft 177 kts 252°
2026-05-04 23:38 46.06696 -119.86048 8020 ft 177 kts 252°
2026-05-04 23:38 46.06240 -119.87694 8015 ft 177 kts 252°
2026-05-04 23:38 46.05785 -119.89330 8011 ft 175 kts 251°
2026-05-04 23:38 46.05323 -119.90956 8007 ft 175 kts 249°
2026-05-04 23:39 46.04869 -119.92555 8013 ft 174 kts 252°
2026-05-04 23:39 46.04430 -119.94182 8013 ft 174 kts 251°
2026-05-04 23:39 46.03982 -119.95803 8003 ft 175 kts 251°
2026-05-04 23:39 46.03524 -119.97420 8001 ft 174 kts 251°
2026-05-04 23:40 46.03077 -119.99042 8000 ft 174 kts 251°
2026-05-04 23:40 46.02625 -120.00661 8000 ft 174 kts 251°
2026-05-04 23:40 46.02175 -120.02276 8000 ft 174 kts 251°
2026-05-04 23:40 46.01724 -120.03888 7998 ft 173 kts 251°
2026-05-04 23:41 46.01280 -120.05470 8003 ft 173 kts 251°
2026-05-04 23:41 46.00831 -120.07073 8003 ft 173 kts 251°
2026-05-04 23:41 46.00382 -120.08675 8001 ft 172 kts 251°
2026-05-04 23:41 45.99933 -120.10276 8002 ft 173 kts 251°
2026-05-04 23:42 45.99485 -120.11875 8002 ft 172 kts 251°
2026-05-04 23:42 45.99036 -120.13476 8002 ft 173 kts 251°
2026-05-04 23:42 45.98585 -120.15080 8002 ft 173 kts 251°
2026-05-04 23:42 45.98132 -120.16686 8006 ft 173 kts 251°
2026-05-04 23:43 45.97681 -120.18295 8005 ft 173 kts 251°
2026-05-04 23:43 45.97228 -120.19899 8005 ft 173 kts 251°
2026-05-04 23:43 45.96783 -120.21482 7996 ft 174 kts 251°
2026-05-04 23:43 45.96329 -120.23091 7990 ft 174 kts 251°
2026-05-04 23:44 45.95875 -120.24702 7994 ft 174 kts 251°
2026-05-04 23:44 45.95420 -120.26310 7991 ft 173 kts 251°
2026-05-04 23:44 45.94967 -120.27914 7993 ft 173 kts 251°
2026-05-04 23:44 45.94513 -120.29517 7995 ft 173 kts 250°
2026-05-04 23:45 45.94061 -120.31119 7993 ft 173 kts 251°
2026-05-04 23:45 45.93608 -120.32717 7993 ft 173 kts 250°
2026-05-04 23:45 45.93153 -120.34320 7992 ft 173 kts 251°
2026-05-04 23:45 45.92704 -120.35904 7994 ft 174 kts 251°
2026-05-04 23:46 45.92248 -120.37512 7998 ft 174 kts 251°
2026-05-04 23:46 45.91794 -120.39120 8000 ft 174 kts 251°
2026-05-04 23:46 45.91336 -120.40740 7997 ft 175 kts 250°
2026-05-04 23:46 45.90873 -120.42352 7996 ft 174 kts 250°
2026-05-04 23:47 45.90416 -120.43965 8002 ft 174 kts 250°
2026-05-04 23:47 45.89956 -120.45576 8003 ft 175 kts 250°
2026-05-04 23:47 45.89497 -120.47195 8001 ft 175 kts 251°
2026-05-04 23:47 45.89045 -120.48785 8003 ft 174 kts 251°
2026-05-04 23:48 45.88583 -120.50396 8004 ft 175 kts 250°
2026-05-04 23:48 45.88122 -120.52018 8004 ft 176 kts 251°
2026-05-04 23:48 45.87658 -120.53638 8005 ft 175 kts 250°
2026-05-04 23:48 45.87196 -120.55259 8003 ft 175 kts 250°
2026-05-04 23:49 45.86736 -120.56868 8006 ft 175 kts 251°
2026-05-04 23:49 45.86275 -120.58485 8003 ft 175 kts 251°
2026-05-04 23:49 45.85809 -120.60104 8003 ft 176 kts 252°
2026-05-04 23:49 45.85343 -120.61737 8004 ft 178 kts 251°
2026-05-04 23:50 45.84879 -120.63357 8008 ft 179 kts 251°
2026-05-04 23:50 45.84406 -120.65007 8006 ft 179 kts 250°
2026-05-04 23:50 45.83932 -120.66657 8006 ft 179 kts 250°
2026-05-04 23:50 45.83457 -120.68303 8006 ft 179 kts 250°
2026-05-04 23:51 45.82986 -120.69947 8005 ft 178 kts 251°
2026-05-04 23:51 45.82515 -120.71583 8009 ft 177 kts 252°
2026-05-04 23:51 45.82046 -120.73216 8009 ft 177 kts 250°
2026-05-04 23:51 45.81574 -120.74846 8008 ft 177 kts 251°
2026-05-04 23:52 45.81107 -120.76476 8004 ft 176 kts 250°
2026-05-04 23:52 45.80640 -120.78102 8003 ft 177 kts 251°
2026-05-04 23:52 45.80174 -120.79708 8004 ft 177 kts 250°
2026-05-04 23:52 45.79701 -120.81345 8005 ft 178 kts 251°
2026-05-04 23:53 45.79226 -120.82987 8009 ft 178 kts 251°
2026-05-04 23:53 45.78753 -120.84622 8011 ft 177 kts 251°
2026-05-04 23:53 45.78283 -120.86256 8011 ft 177 kts 251°
2026-05-04 23:53 45.77810 -120.87885 8012 ft 177 kts 250°
2026-05-04 23:54 45.77335 -120.89514 8012 ft 177 kts 251°
2026-05-04 23:54 45.76864 -120.91150 8003 ft 178 kts 251°
2026-05-04 23:54 45.76389 -120.92788 8001 ft 179 kts 252°
2026-05-04 23:54 45.75919 -120.94416 8003 ft 179 kts 250°
2026-05-04 23:55 45.75438 -120.96066 8003 ft 180 kts 251°
2026-05-04 23:55 45.74959 -120.97713 8004 ft 179 kts 250°
2026-05-04 23:55 45.74006 -121.00982 8002 ft 177 kts 250°
2026-05-04 23:56 45.73533 -121.02609 8002 ft 177 kts 251°
2026-05-04 23:56 45.73059 -121.04236 8002 ft 178 kts 251°
2026-05-04 23:56 45.72583 -121.05872 8005 ft 178 kts 251°
2026-05-04 23:56 45.72110 -121.07493 8007 ft 180 kts 250°
2026-05-04 23:57 45.71629 -121.09147 8015 ft 180 kts 250°
2026-05-04 23:57 45.71368 -121.10870 7998 ft 177 kts 275°
2026-05-04 23:57 45.71438 -121.12615 7997 ft 176 kts 276°
2026-05-04 23:57 45.71482 -121.14364 8004 ft 176 kts 276°
2026-05-04 23:58 45.71536 -121.16104 8008 ft 175 kts 275°
2026-05-04 23:58 45.71581 -121.17839 8010 ft 175 kts 275°
2026-05-04 23:58 45.71634 -121.19579 8010 ft 176 kts 275°
2026-05-04 23:58 45.71680 -121.21298 8009 ft 174 kts 276°
2026-05-04 23:59 45.71728 -121.23030 8013 ft 174 kts 277°
2026-05-04 23:59 45.71777 -121.24760 8015 ft 174 kts 277°
2026-05-04 23:59 45.71825 -121.26487 8008 ft 173 kts 277°
2026-05-04 23:59 45.71877 -121.28207 8013 ft 173 kts 277°
2026-05-05 00:00 45.71922 -121.29928 8011 ft 173 kts 277°
2026-05-05 00:00 45.71939 -121.30509 8020 ft 172 kts 277°
2026-05-05 00:00 45.72022 -121.33361 8023 ft 174 kts 275°
2026-05-05 00:00 45.72066 -121.35089 8024 ft 174 kts 275°
2026-05-05 00:01 45.72112 -121.36786 8024 ft 172 kts 276°
2026-05-05 00:01 45.72159 -121.38502 8022 ft 173 kts 276°
2026-05-05 00:01 45.72205 -121.40227 8019 ft 173 kts 276°
2026-05-05 00:01 45.72254 -121.41940 8027 ft 173 kts 274°
2026-05-05 00:02 45.72295 -121.43669 8038 ft 174 kts 274°
2026-05-05 00:02 45.72346 -121.45401 8040 ft 175 kts 274°
2026-05-05 00:02 45.72395 -121.47139 8040 ft 175 kts 275°
2026-05-05 00:02 45.72435 -121.48877 8036 ft 174 kts 275°
2026-05-05 00:03 45.72481 -121.50596 8055 ft 172 kts 276°
2026-05-05 00:03 45.72524 -121.52312 8056 ft 172 kts 276°
2026-05-05 00:03 45.72569 -121.54003 8056 ft 173 kts 274°
2026-05-05 00:03 45.72608 -121.55727 8056 ft 173 kts 275°
2026-05-05 00:04 45.72657 -121.57461 8011 ft 177 kts 275°
2026-05-05 00:04 45.72705 -121.59240 7945 ft 179 kts 275°
2026-05-05 00:04 45.72747 -121.61012 7945 ft 177 kts 274°
2026-05-05 00:04 45.72792 -121.62766 7942 ft 176 kts 274°
2026-05-05 00:05 45.72835 -121.64514 7938 ft 175 kts 274°
2026-05-05 00:05 45.72879 -121.66222 7941 ft 174 kts 274°
2026-05-05 00:05 45.72919 -121.67950 7939 ft 174 kts 274°
2026-05-05 00:05 45.72957 -121.69674 7966 ft 173 kts 275°
2026-05-05 00:06 45.72996 -121.71395 7976 ft 173 kts 276°
2026-05-05 00:06 45.73043 -121.73115 7976 ft 173 kts 275°
2026-05-05 00:06 45.73084 -121.74826 7976 ft 172 kts 276°
2026-05-05 00:06 45.73126 -121.76537 7977 ft 172 kts 275°
2026-05-05 00:07 45.73167 -121.78255 7967 ft 173 kts 276°
2026-05-05 00:07 45.73208 -121.79960 7978 ft 168 kts 275°
2026-05-05 00:07 45.73244 -121.81620 7981 ft 170 kts 275°
2026-05-05 00:07 45.73283 -121.83318 7983 ft 171 kts 277°
2026-05-05 00:08 45.73327 -121.85015 7982 ft 170 kts 275°
2026-05-05 00:08 45.73363 -121.86710 7981 ft 170 kts 276°
2026-05-05 00:08 45.73402 -121.88415 7997 ft 173 kts 277°
2026-05-05 00:08 45.73441 -121.90138 7995 ft 173 kts 277°
2026-05-05 00:09 45.73481 -121.91856 7996 ft 172 kts 277°
2026-05-05 00:09 45.73520 -121.93564 7996 ft 172 kts 277°
2026-05-05 00:09 45.73552 -121.95251 7996 ft 172 kts 277°
2026-05-05 00:09 45.73596 -121.96953 7996 ft 171 kts 277°
2026-05-05 00:10 45.73641 -121.98654 7995 ft 171 kts 277°
2026-05-05 00:10 45.73673 -122.00368 7997 ft 173 kts 275°
2026-05-05 00:10 45.73700 -122.02092 7996 ft 173 kts 277°
2026-05-05 00:10 45.73738 -122.03812 7996 ft 173 kts 276°
2026-05-05 00:11 45.73776 -122.05533 7998 ft 173 kts 275°
2026-05-05 00:11 45.73780 -122.07247 8001 ft 170 kts 271°
2026-05-05 00:11 45.73807 -122.08936 8003 ft 170 kts 280°
2026-05-05 00:11 45.73891 -122.10613 8004 ft 172 kts 278°
2026-05-05 00:12 45.73934 -122.12331 8000 ft 173 kts 276°
2026-05-05 00:12 45.73960 -122.14055 8001 ft 173 kts 276°
2026-05-05 00:12 45.73991 -122.15766 8001 ft 171 kts 276°
2026-05-05 00:12 45.74015 -122.16889 7987 ft 170 kts 275°
2026-05-05 00:13 45.74057 -122.19118 8002 ft 167 kts 275°
2026-05-05 00:13 45.74088 -122.20788 8004 ft 168 kts 275°
2026-05-05 00:13 45.74118 -122.22478 8000 ft 170 kts 276°
2026-05-05 00:13 45.74152 -122.24177 8007 ft 171 kts 277°
2026-05-05 00:14 45.74187 -122.25866 8008 ft 172 kts 275°
2026-05-05 00:14 45.74218 -122.27578 8012 ft 173 kts 275°
2026-05-05 00:14 45.74252 -122.29302 8008 ft 173 kts 275°
2026-05-05 00:14 45.74284 -122.31022 8008 ft 173 kts 275°
2026-05-05 00:15 45.74316 -122.32737 8005 ft 172 kts 275°
2026-05-05 00:15 45.74348 -122.34459 8003 ft 173 kts 275°
2026-05-05 00:15 45.74379 -122.36178 8003 ft 173 kts 275°
2026-05-05 00:15 45.74410 -122.37894 8002 ft 172 kts 275°
2026-05-05 00:16 45.74442 -122.39608 8006 ft 172 kts 275°
2026-05-05 00:16 45.74472 -122.41297 8007 ft 172 kts 275°
2026-05-05 00:16 45.74503 -122.43011 8008 ft 173 kts 275°
2026-05-05 00:16 45.74534 -122.44734 8015 ft 174 kts 275°
2026-05-05 00:17 45.74564 -122.46464 8014 ft 174 kts 275°
2026-05-05 00:17 45.74593 -122.48188 8014 ft 173 kts 275°
2026-05-05 00:17 45.74623 -122.49910 8015 ft 173 kts 275°
2026-05-05 00:17 45.74653 -122.51631 8014 ft 173 kts 275°
2026-05-05 00:18 45.74678 -122.53324 8010 ft 172 kts 275°
2026-05-05 00:18 45.74708 -122.55038 8012 ft 172 kts 275°
2026-05-05 00:18 45.74742 -122.56756 8012 ft 173 kts 275°
2026-05-05 00:18 45.74769 -122.58476 8012 ft 173 kts 275°
2026-05-05 00:19 45.74698 -122.60198 8016 ft 175 kts 266°
2026-05-05 00:19 45.74584 -122.61338 8015 ft 175 kts 266°
2026-05-05 00:19 45.74371 -122.63635 8019 ft 174 kts 266°
2026-05-05 00:19 45.74219 -122.65346 8016 ft 173 kts 266°
2026-05-05 00:20 45.74064 -122.67055 8015 ft 174 kts 266°
2026-05-05 00:20 45.73911 -122.68753 8017 ft 175 kts 266°
2026-05-05 00:20 45.73754 -122.70476 8015 ft 174 kts 266°
2026-05-05 00:20 45.73598 -122.72193 8009 ft 174 kts 266°
2026-05-05 00:21 45.73442 -122.73907 8012 ft 174 kts 266°
2026-05-05 00:21 45.73284 -122.75627 8014 ft 175 kts 266°
2026-05-05 00:21 45.73127 -122.77348 8011 ft 174 kts 266°
2026-05-05 00:21 45.72970 -122.79067 8011 ft 174 kts 266°
2026-05-05 00:22 45.72812 -122.80781 8000 ft 173 kts 266°
2026-05-05 00:22 45.72657 -122.82466 7988 ft 173 kts 266°
2026-05-05 00:22 45.72500 -122.84179 7987 ft 174 kts 266°
2026-05-05 00:22 45.72343 -122.85893 7989 ft 174 kts 266°
2026-05-05 00:23 45.72184 -122.87613 7987 ft 174 kts 266°
2026-05-05 00:23 45.72024 -122.89336 7987 ft 174 kts 266°
2026-05-05 00:23 45.71864 -122.91051 7987 ft 174 kts 266°
2026-05-05 00:23 45.71703 -122.92771 7986 ft 175 kts 266°
2026-05-05 00:24 45.71546 -122.94495 7889 ft 178 kts 266°
2026-05-05 00:24 45.71383 -122.96244 7888 ft 176 kts 266°
2026-05-05 00:24 45.71219 -122.97977 7888 ft 175 kts 266°
2026-05-05 00:24 45.71059 -122.99696 7886 ft 174 kts 266°
2026-05-05 00:25 45.70899 -123.01406 7885 ft 173 kts 266°
2026-05-05 00:25 45.70741 -123.03111 7887 ft 173 kts 266°
2026-05-05 00:25 45.70580 -123.04820 7885 ft 173 kts 266°
2026-05-05 00:25 45.70418 -123.06522 7885 ft 173 kts 266°
2026-05-05 00:26 45.70257 -123.08219 7890 ft 172 kts 266°
2026-05-05 00:26 45.70099 -123.09896 7890 ft 172 kts 266°
2026-05-05 00:26 45.69937 -123.11593 7893 ft 173 kts 266°
2026-05-05 00:26 45.69776 -123.13296 7892 ft 173 kts 266°
2026-05-05 00:27 45.69613 -123.15008 7893 ft 173 kts 266°
2026-05-05 00:27 45.69453 -123.16712 7894 ft 173 kts 266°
2026-05-05 00:27 45.69293 -123.18418 7895 ft 173 kts 266°
2026-05-05 00:27 45.69128 -123.20122 7894 ft 173 kts 266°
2026-05-05 00:28 45.68965 -123.21824 7890 ft 172 kts 266°
2026-05-05 00:28 45.68809 -123.23488 7891 ft 171 kts 267°
2026-05-05 00:28 45.68648 -123.25169 7891 ft 171 kts 266°
2026-05-05 00:28 45.68486 -123.26854 7889 ft 171 kts 266°
2026-05-05 00:29 45.68326 -123.28538 7891 ft 171 kts 266°
2026-05-05 00:29 45.68162 -123.30222 7897 ft 171 kts 266°
2026-05-05 00:29 45.68000 -123.31896 7900 ft 169 kts 266°
2026-05-05 00:29 45.67839 -123.33564 7912 ft 170 kts 266°
2026-05-05 00:30 45.67677 -123.35242 7910 ft 170 kts 266°
2026-05-05 00:30 45.67515 -123.36917 7914 ft 171 kts 266°
2026-05-05 00:30 45.67351 -123.38572 7913 ft 168 kts 265°
2026-05-05 00:30 45.67191 -123.40229 7923 ft 169 kts 266°
2026-05-05 00:31 45.67027 -123.41907 7930 ft 172 kts 267°
2026-05-05 00:31 45.66867 -123.43610 7931 ft 173 kts 266°
2026-05-05 00:31 45.66698 -123.45322 7931 ft 175 kts 266°
2026-05-05 00:31 45.66528 -123.47041 7948 ft 175 kts 266°
2026-05-05 00:32 45.66360 -123.48759 7949 ft 174 kts 266°
2026-05-05 00:32 45.66191 -123.50476 7949 ft 174 kts 266°
2026-05-05 00:32 45.66026 -123.52165 7949 ft 174 kts 266°
2026-05-05 00:32 45.65858 -123.53866 7943 ft 171 kts 265°
2026-05-05 00:33 45.65692 -123.55541 7939 ft 170 kts 265°
2026-05-05 00:33 45.65526 -123.57215 7939 ft 171 kts 266°
2026-05-05 00:33 45.65359 -123.58904 7939 ft 172 kts 266°
2026-05-05 00:33 45.65192 -123.60613 7939 ft 175 kts 265°
2026-05-05 00:34 45.65022 -123.62320 7937 ft 173 kts 266°
2026-05-05 00:34 45.64853 -123.64018 7957 ft 173 kts 266°
2026-05-05 00:34 45.64684 -123.65713 7959 ft 173 kts 266°
2026-05-05 00:34 45.64516 -123.67388 7957 ft 172 kts 265°
2026-05-05 00:35 45.64348 -123.69101 7844 ft 177 kts 266°
2026-05-05 00:35 45.64179 -123.70839 7616 ft 177 kts 266°
2026-05-05 00:35 45.64009 -123.72552 7389 ft 171 kts 265°
2026-05-05 00:35 45.63841 -123.74206 7166 ft 167 kts 265°
2026-05-05 00:36 45.63678 -123.75826 6966 ft 163 kts 266°
2026-05-05 00:36 45.63518 -123.77416 6753 ft 160 kts 265°
2026-05-05 00:36 45.63360 -123.78981 6546 ft 158 kts 266°
2026-05-05 00:36 45.63205 -123.80524 6335 ft 156 kts 266°
2026-05-05 00:37 45.63052 -123.82026 6129 ft 154 kts 266°
2026-05-05 00:37 45.62899 -123.83523 5931 ft 152 kts 267°
2026-05-05 00:37 45.62744 -123.85031 5727 ft 155 kts 266°
2026-05-05 00:37 45.62590 -123.86560 5520 ft 155 kts 266°
2026-05-05 00:38 45.62438 -123.88089 5314 ft 156 kts 266°
2026-05-05 00:38 45.62282 -123.89616 5109 ft 155 kts 266°
2026-05-05 00:38 45.62126 -123.91140 4903 ft 155 kts 265°
2026-05-05 00:38 45.61969 -123.92666 4698 ft 157 kts 265°
2026-05-05 00:39 45.61812 -123.94211 4500 ft 157 kts 266°
2026-05-05 00:39 45.61743 -123.95699 4486 ft 148 kts 277°
2026-05-05 00:39 45.61883 -123.97115 4483 ft 141 kts 286°
2026-05-05 00:39 45.62196 -123.98421 4477 ft 137 kts 296°
2026-05-05 00:40 45.62653 -123.99576 4479 ft 131 kts 306°
2026-05-05 00:40 45.63225 -124.00565 4476 ft 127 kts 315°
2026-05-05 00:40 45.63891 -124.01381 4472 ft 126 kts 324°
2026-05-05 00:40 45.64637 -124.02024 4473 ft 125 kts 330°
2026-05-05 00:41 45.65393 -124.02637 4471 ft 125 kts 329°
2026-05-05 00:41 45.66135 -124.03239 4474 ft 124 kts 329°
2026-05-05 00:41 45.66885 -124.03847 4476 ft 123 kts 329°
2026-05-05 00:41 45.67639 -124.04438 4470 ft 124 kts 334°
2026-05-05 00:42 45.68491 -124.04572 4468 ft 127 kts
2026-05-05 00:42 45.69297 -124.04052 4468 ft 131 kts 35°
2026-05-05 00:42 45.69813 -124.02962 4469 ft 136 kts 67°
2026-05-05 00:42 45.69833 -124.01595 4469 ft 142 kts 103°
2026-05-05 00:43 45.69306 -124.00420 4468 ft 142 kts 140°
2026-05-05 00:43 45.68469 -123.99711 4469 ft 141 kts 151°
2026-05-05 00:43 45.67694 -123.98853 4470 ft 142 kts 133°
2026-05-05 00:43 45.67008 -123.97850 4474 ft 141 kts 136°
2026-05-05 00:44 45.66258 -123.96941 4471 ft 143 kts 142°
2026-05-05 00:44 45.65437 -123.96131 4473 ft 144 kts 149°
2026-05-05 00:44 45.64569 -123.95418 4479 ft 144 kts 148°
2026-05-05 00:44 45.63711 -123.94668 4479 ft 146 kts 150°
2026-05-05 00:45 45.62780 -123.94086 4482 ft 147 kts 162°
2026-05-05 00:45 45.61818 -123.93587 4486 ft 147 kts 160°
2026-05-05 00:45 45.60867 -123.93065 4380 ft 151 kts 160°
2026-05-05 00:45 45.59867 -123.92512 4183 ft 156 kts 159°
2026-05-05 00:46 45.58853 -123.91946 3979 ft 157 kts 159°
2026-05-05 00:46 45.57834 -123.91375 3776 ft 159 kts 160°
2026-05-05 00:46 45.56814 -123.90807 3558 ft 154 kts 159°
2026-05-05 00:46 45.55824 -123.90250 3360 ft 151 kts 159°
2026-05-05 00:47 45.54901 -123.89739 3164 ft 136 kts 159°
2026-05-05 00:47 45.54048 -123.89261 2983 ft 127 kts 160°
2026-05-05 00:47 45.53248 -123.88811 2814 ft 120 kts 161°
2026-05-05 00:47 45.52532 -123.88352 2785 ft 106 kts 158°
2026-05-05 00:48 45.51877 -123.87951 2668 ft 105 kts 159°
2026-05-05 00:48 45.51216 -123.87545 2557 ft 103 kts 159°
2026-05-05 00:48 45.50577 -123.87092 2418 ft 102 kts 154°
2026-05-05 00:48 45.49973 -123.86608 2340 ft 98 kts 157°
2026-05-05 00:49 45.49339 -123.86225 2193 ft 99 kts 162°
2026-05-05 00:49 45.48711 -123.85857 2076 ft 97 kts 161°
2026-05-05 00:49 45.48073 -123.85506 1893 ft 97 kts 163°
2026-05-05 00:49 45.47491 -123.85179 1709 ft 88 kts 161°
2026-05-05 00:50 45.46929 -123.84804 1484 ft 91 kts 159°
2026-05-05 00:50 45.46358 -123.84443 1272 ft 90 kts 160°
2026-05-05 00:50 45.45789 -123.84070 1040 ft 90 kts 160°
2026-05-05 00:50 45.45206 -123.83697 811 ft 92 kts 160°
2026-05-05 00:51 45.44675 -123.83269 714 ft 86 kts 146°
2026-05-05 00:51 45.44299 -123.82575 688 ft 91 kts 124°
2026-05-05 00:51 45.44026 -123.81747 720 ft 93 kts 119°
2026-05-05 00:51 45.43706 -123.80977 612 ft 88 kts 139°
2026-05-05 00:52 45.43192 -123.80598 429 ft 80 kts 173°
2026-05-05 00:52 45.42673 -123.80665 215 ft 71 kts 204°
2026-05-05 00:52 45.42279 -123.80996 47 ft 62 kts 211°
2026-05-05 00:52 45.41972 -123.81255 34 ft 42 kts 210°
2026-05-05 00:53 45.41745 -123.81442 30 ft 33 kts 211°
2026-05-05 00:53 45.41571 -123.81590 29 ft 23 kts 211°
2026-05-05 00:53 45.41584 -123.81672 29 ft 19 kts 347°
2026-05-05 00:53 45.41734 -123.81721 30 ft 23 kts 351°
2026-05-05 00:54 45.41828 -123.81797 30 ft 13 kts 271°
2026-05-05 00:54 45.41856 -123.81844 30 ft 6 kts 65°
2026-05-05 00:54 45.41857 -123.81837 30 ft 0 kts 83°